Theta_e
282 282 282 281 281 281 280 279 279 278 278 278 277 277 277 277 277 276 275 274 274 275 275 275 275 275 276 275 275 275 275 274 274 274 274 274 274 274 274 274 275 275
283 283 283 283 283 282 281 280 280 279 279 278 278 277 277 276 276 276 275 274 274 274 274 274 275 275 275 275 274 274 274 274 274 275 274 274 274 274 274 274 274 275
281 281 282 282 283 283 283 282 281 279 279 279 279 277 277 277 276 276 275 274 274 274 274 274 274 274 274 274 274 274 274 274 273 274 274 273 274 274 274 274 274 275
280 281 282 282 282 282 282 282 281 280 279 279 278 278 278 278 277 276 276 276 274 273 273 273 274 274 274 274 274 273 273 274 274 274 273 274 274 274 273 274 274 274
280 280 280 280 280 280 280 280 280 280 281 281 280 279 278 278 277 276 276 275 274 274 274 274 274 273 273 273 273 273 274 273 274 274 273 273 273 273 274 274 273 273
278 278 278 278 278 277 277 277 278 279 280 280 280 280 279 278 277 276 276 275 275 274 274 274 274 273 273 273 273 273 273 273 273 274 273 273 273 273 274 274 273 273
277 277 277 276 275 275 275 275 277 279 279 280 280 280 280 278 277 277 276 275 275 275 274 274 273 274 274 273 272 272 273 273 273 273 273 273 273 273 273 273 273 272
276 276 274 273 272 273 273 274 278 278 278 279 278 278 279 278 277 277 277 276 275 275 275 274 274 274 274 273 272 272 272 273 273 273 272 272 272 272 273 273 273 272
274 272 272 272 271 272 273 276 275 275 275 275 275 275 277 277 278 277 277 276 275 275 274 274 274 274 274 273 273 272 272 272 273 272 272 272 271 272 272 273 272 272
272 271 271 271 271 272 273 273 273 273 274 273 273 274 274 275 276 276 276 276 275 275 274 274 274 273 273 273 272 272 272 272 272 272 272 272 272 272 272 272 272 272
270 271 270 270 271 272 271 271 271 271 271 271 271 271 272 273 273 275 275 275 274 274 274 274 273 273 273 272 272 272 272 272 272 272 272 272 272 272 273 272 272 271
270 270 270 271 271 270 270 269 269 269 268 268 269 268 269 269 270 272 273 273 274 274 274 274 273 273 273 272 271 272 272 272 272 272 272 272 272 272 272 272 272 271
269 270 270 270 269 269 268 268 267 267 267 266 266 266 266 266 267 268 269 270 272 273 273 273 273 273 272 271 271 271 271 271 271 271 271 271 271 271 272 272 272 272
269 270 269 268 268 268 267 267 266 265 265 265 265 264 264 265 265 266 267 268 268 269 272 273 273 273 272 271 271 271 270 270 271 271 271 271 271 271 271 271 272 272
268 267 267 267 267 266 266 265 264 264 263 263 263 263 264 264 265 265 265 265 266 267 268 270 272 272 272 272 271 270 270 270 271 271 271 270 270 271 271 271 271 272
266 266 265 265 265 264 264 263 263 262 262 262 262 263 263 263 263 263 264 264 265 266 267 268 270 272 273 275 275 272 271 270 271 271 271 270 270 270 270 271 271 271
264 264 264 263 263 263 263 262 261 261 261 261 261 261 261 261 262 263 263 264 264 265 265 267 268 270 273 275 276 277 274 272 271 270 270 270 270 270 269 270 270 271
262 262 262 262 262 261 261 260 260 260 259 260 260 260 260 261 261 261 262 262 263 265 266 267 268 271 274 275 276 276 276 272 272 271 270 270 270 270 270 270 270 270
261 261 260 260 260 260 260 259 259 259 258 258 258 260 260 259 259 260 260 262 263 263 264 266 266 271 273 274 275 276 276 275 272 271 270 270 269 269 269 269 269 269
260 260 259 259 259 259 258 258 257 257 258 258 259 259 258 258 259 260 261 261 262 263 264 265 267 270 273 274 275 275 276 275 272 271 271 270 269 269 269 269 269 268
259 258 258 258 258 258 257 257 257 257 257 258 258 258 258 258 259 259 259 260 261 262 263 265 266 271 273 274 274 275 276 275 271 271 271 270 269 269 269 269 269 269
258 257 257 257 257 257 256 256 256 256 256 257 257 257 258 258 259 259 259 260 261 261 261 262 264 270 272 274 274 275 275 272 271 271 270 269 269 269 269 269 269 268
257 257 256 256 256 256 255 255 256 256 256 257 256 257 257 257 258 258 259 259 260 261 261 262 264 269 272 273 273 274 273 271 270 270 269 268 268 268 268 268 268 268
257 256 256 255 255 255 255 255 255 256 255 256 256 256 256 257 258 258 259 260 261 261 263 264 265 268 271 272 273 274 273 270 269 269 267 268 268 268 268 268 268 270
256 256 256 255 255 255 255 254 255 255 256 256 256 256 257 257 258 259 259 261 261 262 264 264 264 267 270 272 273 273 272 270 269 269 266 267 266 266 267 267 267 269
256 256 255 255 255 254 254 254 255 255 255 255 256 256 257 258 258 259 259 260 261 262 263 264 264 265 267 271 272 272 273 270 269 268 266 266 266 266 265 266 267 267
Wind_Speed
10 10 11 11 10 9 9 9 8 9 9 9 9 9 10 9 8 8 8 8 9 10 10 11 11 11 11 11 12 11 11 12 11 10 11 12 12 13 14 14 14 13
14 13 12 12 11 10 10 9 10 10 10 10 9 10 9 9 9 8 8 8 8 9 10 10 11 12 11 11 11 12 12 11 13 10 11 14 13 13 15 15 14 14
15 15 14 14 14 14 14 12 10 10 10 12 12 10 10 9 10 8 8 8 8 8 9 10 11 11 11 11 11 11 12 13 13 11 11 13 12 13 13 13 13 15
14 14 13 13 13 14 13 13 13 11 10 11 12 12 11 10 10 9 8 9 8 9 9 10 11 11 11 12 12 11 13 13 13 11 12 11 12 12 13 11 12 13
13 14 14 14 14 15 15 16 17 16 15 14 14 13 12 11 10 10 9 9 10 11 10 11 10 10 10 10 11 12 13 12 13 12 12 13 12 11 12 11 13 13
13 13 13 13 14 16 16 17 17 17 17 16 15 14 13 13 11 11 14 13 9 7 8 8 9 9 9 10 11 11 12 11 12 12 14 15 13 12 11 11 12 13
14 13 14 15 17 18 18 17 16 14 14 16 16 16 15 14 14 11 8 7 8 8 9 9 9 10 9 9 10 12 12 12 13 13 15 14 13 14 13 12 13 13
15 13 15 15 18 17 17 16 12 14 16 17 18 18 18 15 14 12 11 10 9 10 10 10 9 10 10 10 11 11 13 11 12 14 15 15 14 15 14 12 12 13
14 16 14 18 17 16 14 14 16 16 16 16 16 17 16 16 16 15 14 12 11 11 11 10 11 11 11 11 12 12 13 13 13 14 15 15 15 16 15 13 13 14
17 15 16 15 16 12 15 17 16 16 16 17 17 16 17 16 15 15 14 15 14 13 13 12 12 11 11 11 12 12 12 13 13 14 15 15 15 15 14 14 14 14
15 15 14 14 13 13 16 16 17 18 16 17 16 19 18 16 18 15 15 14 12 14 13 12 11 11 12 12 12 11 12 13 12 13 14 15 15 15 14 14 14 15
15 15 13 13 14 14 15 17 18 16 16 15 15 20 18 19 19 15 16 17 15 14 13 13 12 12 13 13 13 13 12 12 12 13 14 15 15 15 14 14 14 15
15 11 12 14 15 16 16 14 16 15 17 18 17 19 16 17 14 18 17 16 18 15 14 15 14 13 13 13 13 13 12 13 13 14 15 14 14 15 14 14 14 14
11 12 15 16 16 15 15 16 16 16 17 15 15 15 16 18 18 18 16 13 18 17 18 14 15 14 14 14 13 12 12 12 13 14 15 15 15 14 14 14 14 14
14 16 14 16 16 16 15 16 15 16 16 17 17 13 15 14 16 18 18 19 15 17 18 18 16 15 12 13 13 14 12 13 14 15 15 15 15 15 14 14 14 13
18 18 16 18 16 16 15 14 16 17 15 15 17 16 17 14 18 16 16 18 19 18 17 18 15 12 17 27 25 16 13 13 14 15 15 15 15 14 14 14 13 12
16 15 17 18 15 17 14 16 17 14 16 16 15 15 16 17 16 16 16 16 18 17 20 15 16 14 31 32 32 34 24 16 14 14 14 15 15 14 14 13 12 12
17 18 18 15 16 15 17 15 15 16 16 15 16 18 16 16 18 20 18 18 17 18 17 15 14 21 30 31 32 33 30 20 14 14 14 14 14 14 13 11 12 11
16 16 17 17 17 16 14 14 16 15 15 15 18 17 16 16 20 21 18 17 17 19 18 18 16 26 30 32 30 32 33 27 15 13 14 14 13 13 13 12 11 10
16 16 17 16 16 15 15 17 14 15 15 15 15 18 17 17 17 20 18 18 18 18 17 17 15 24 33 32 30 31 30 26 16 14 13 14 14 13 12 12 12 11
15 18 16 16 16 16 17 15 17 16 15 15 14 16 15 16 17 17 16 16 18 15 16 16 18 33 33 32 28 28 28 26 15 12 11 13 13 13 13 13 12 12
16 16 17 16 16 16 16 17 17 15 17 18 17 14 14 14 14 14 16 17 18 19 19 18 19 33 34 30 29 29 30 17 11 10 9 11 12 13 12 11 11 11
14 15 15 16 17 16 16 16 17 18 18 13 16 16 17 15 14 17 16 17 17 18 18 18 18 24 27 29 30 31 24 12 8 7 7 10 11 11 11 11 11 11
14 15 17 16 15 17 16 17 15 14 12 12 15 16 17 16 15 14 15 15 17 17 17 18 16 21 31 29 28 29 23 12 7 6 6 9 9 11 9 10 11 18
14 16 15 16 18 16 17 17 18 17 14 15 13 15 16 15 14 14 14 14 16 16 26 24 16 18 28 28 27 25 18 8 6 5 6 8 8 9 8 8 10 15
14 15 16 16 16 19 18 16 14 14 17 16 15 13 12 15 14 15 17 16 17 19 17 14 15 15 17 26 23 22 22 12 4 5 6 8 8 9 9 8 9 9
Wind_Direction
309 304 296 292 285 274 270 271 266 265 264 261 254 254 240 236 228 220 218 216 218 223 225 229 230 232 234 234 234 236 237 236 236 235 234 236 238 238 239 237 234 235
325 318 309 304 299 290 283 277 280 278 275 268 260 255 248 239 231 224 220 219 217 220 222 225 227 229 232 233 233 234 238 237 238 232 234 235 236 237 239 237 235 236
323 316 314 312 310 308 306 302 295 285 280 278 273 263 256 241 238 226 221 216 218 221 221 220 224 226 227 231 233 234 237 238 239 234 233 236 234 236 237 237 236 235
314 314 318 321 321 318 316 313 308 300 292 290 283 271 258 252 239 232 224 219 218 222 220 217 218 220 221 226 230 234 237 239 240 236 236 238 236 235 237 235 237 235
325 333 334 331 330 332 330 325 321 317 312 305 298 286 272 260 247 234 229 227 221 220 217 218 217 218 220 225 229 235 237 240 241 237 239 241 237 233 236 234 235 235
334 333 336 337 338 335 330 325 320 319 317 315 314 308 291 270 257 242 231 231 234 233 231 228 223 223 221 227 231 235 239 240 240 236 240 242 241 234 235 233 234 235
333 336 341 344 337 331 323 318 314 320 331 331 326 323 316 297 276 274 289 277 250 238 235 230 228 230 230 231 232 236 239 240 241 237 238 241 240 239 235 234 233 235
337 346 343 337 329 320 316 309 333 345 339 339 337 335 333 319 306 289 274 269 262 256 250 240 236 239 241 236 235 236 238 238 241 240 239 240 237 240 236 234 233 235
342 335 333 326 320 315 314 342 343 335 333 331 333 330 328 328 323 312 297 285 273 261 251 246 242 243 242 239 239 238 239 240 240 241 240 240 237 238 236 233 235 235
330 327 323 319 315 322 343 339 337 335 332 328 326 324 323 322 320 318 309 296 284 272 261 255 250 246 246 244 243 242 242 244 243 242 242 240 238 237 234 232 233 235
324 322 317 315 329 341 338 338 333 331 328 327 323 319 316 315 312 310 304 302 296 287 277 270 262 256 251 248 245 242 242 244 243 242 241 241 238 236 232 231 232 234
322 317 317 337 339 336 335 331 331 327 327 324 323 318 315 312 310 305 303 299 289 281 277 270 265 257 251 248 246 244 245 244 244 242 241 239 237 235 232 230 232 232
317 324 342 338 337 332 329 328 325 324 324 322 321 316 312 310 306 306 303 301 296 288 276 271 264 258 254 250 248 246 245 245 244 243 242 239 236 234 230 230 230 231
322 348 339 336 328 323 321 321 321 323 323 318 315 311 311 309 309 306 303 298 297 293 286 274 266 258 253 250 248 246 245 244 243 243 242 239 236 232 229 228 228 228
348 338 330 322 320 317 318 320 322 321 318 314 310 305 305 305 307 308 305 300 295 291 289 284 271 262 255 251 248 247 243 244 244 243 240 238 235 233 229 227 227 226
338 329 323 322 318 318 319 321 320 318 313 308 308 308 308 307 306 298 294 293 295 293 289 287 282 276 270 262 256 251 243 244 243 240 237 235 233 231 229 226 223 221
332 325 324 322 321 319 320 320 316 312 311 308 306 307 306 301 298 295 294 296 294 289 287 279 275 268 275 274 270 266 262 254 241 239 233 230 229 227 228 223 221 219
330 325 321 319 320 317 316 314 310 310 309 306 306 307 304 305 305 304 301 298 292 289 288 289 287 290 288 283 276 270 264 259 246 235 228 226 223 222 223 220 218 216
327 323 318 316 316 313 309 307 308 304 304 307 306 306 308 304 306 302 294 291 287 287 283 280 278 284 284 282 277 273 269 265 256 235 224 221 216 215 215 215 213 213
324 320 316 313 312 310 309 308 306 305 304 305 303 307 305 301 296 299 301 301 300 298 295 291 283 288 289 285 278 270 269 265 258 243 221 213 211 207 209 210 208 209
321 318 313 311 311 311 309 308 310 308 308 311 308 306 302 301 303 303 296 293 290 287 289 291 294 293 292 288 283 283 279 274 262 247 220 207 206 204 205 207 204 206
319 313 311 310 309 308 309 310 311 312 312 313 308 301 300 297 292 288 291 294 294 292 290 286 287 291 291 291 293 290 285 278 263 245 212 199 199 201 200 201 200 201
315 311 309 309 310 308 310 311 313 314 311 307 303 302 301 299 295 295 294 290 289 289 288 286 283 285 295 296 291 287 284 276 257 238 202 191 193 192 196 195 198 198
312 313 311 309 310 312 312 312 309 304 299 302 300 301 301 299 295 290 287 286 286 285 286 288 291 299 299 292 288 285 282 274 250 225 178 187 186 188 188 196 198 199
316 315 314 313 315 312 313 311 311 309 306 301 298 297 295 294 292 290 291 290 290 285 291 290 287 296 297 292 289 287 285 282 255 197 156 174 175 185 189 192 199 206
315 316 316 316 314 313 311 310 307 305 305 304 300 294 294 296 295 295 296 293 293 292 284 284 295 293 289 289 288 288 288 285 217 213 168 170 174 181 190 199 193 194